Temp: 4.1°C   Baro: 993.7mb
  Wind: 0.0mph   Dir: WNW (296°)
  Rain: 0.2mm (0.0mm/hr)
  Solar: 185W/m2  Hum: 94%

10 day detailed forecast for Bath, United Kingdom

Last update: 22.01.2021 08:30
Next update: 22.01.2021 14:37
Latitude: 51.38° N
Longitude: 2.36° W
meteogram
    Temperature Precipitation Pressure Wind Humidity Clouds Fog
 08:00     16:41 Today
12:00   993.7 mb 7 mph 81% 27%
13:00   993.2 mb 7 mph 79% 33%
14:00   992.8 mb 8 mph 78% 63%
15:00 0.6 mm 993.0 mb 9 mph 85% 79%
16:00 0.2 mm 993.0 mb 8 mph 87% 95%
17:00 0.2 mm 993.1 mb 6 mph 90% 82%
18:00 0.3 mm 993.6 mb 9 mph 92% 90%
19:00   994.0 mb 10 mph 95% 61%
20:00   994.5 mb 9 mph 94% 27%
21:00   994.7 mb 8 mph 95% 2%
22:00   995.1 mb 7 mph 94% 43%
23:00   995.4 mb 7 mph 93% 5%
 07:59     16:43 Tomorrow
00:00   995.3 mb 6 mph 92% 1%
01:00   995.1 mb 5 mph 93% 2%
02:00   994.9 mb 5 mph 93% 16%
03:00   994.6 mb 4 mph 93% 100%
04:00   994.4 mb 4 mph 93% 100%
05:00   994.2 mb 4 mph 93% 99%
06:00   994.4 mb 5 mph 94% 98%
07:00   994.6 mb 5 mph 94% 97%
08:00   995.1 mb 6 mph 95% 86%
09:00   995.6 mb 7 mph 95% 72%
10:00   995.8 mb 8 mph 92% 27%
11:00   996.0 mb 7 mph 88% 1%
12:00   996.0 mb 8 mph 82% 16%
13:00   995.9 mb 9 mph 82% 44%
14:00 0.1 mm 995.8 mb 7 mph 82% 29%
15:00 0.1 mm 996.0 mb 7 mph 80% 57%
16:00 0.4 mm 996.4 mb 6 mph 84% 20%
17:00   997.0 mb 6 mph 89% 14%
18:00   997.4 mb 6 mph 90% 3%
19:00   997.8 mb 6 mph 90% 1%
20:00   998.4 mb 7 mph 92% 0%
21:00   999.0 mb 6 mph 93% 0%
22:00   999.2 mb 5 mph 93% 0%
23:00   999.6 mb 5 mph 93% 0%
 07:58     16:45 Sunday 24.01.2021
00:00   1000.0 mb 5 mph 91% 27%
01:00   999.9 mb 5 mph 90% 98%
02:00   999.8 mb 5 mph 92% 98%
03:00   999.5 mb 6 mph 92% 99%
04:00   998.9 mb 7 mph 90% 99%
05:00   998.7 mb 5 mph 89% 98%
06:00   997.8 mb 6 mph 90% 98%
07:00 0.2 mm 996.9 mb 7 mph 89% 99%
08:00 1.0 mm 996.3 mb 9 mph 90% 98%
09:00 1.1 mm 995.6 mb 9 mph 91% 89%
10:00 0.2 mm 994.9 mb 8 mph 92% 95%
11:00   994.7 mb 7 mph 91% 81%
12:00   994.3 mb 7 mph 88% 84%
13:00 0.1 mm 993.8 mb 8 mph 88% 67%
14:00   993.4 mb 8 mph 88% 73%
15:00   993.4 mb 8 mph 88% 56%
16:00   993.7 mb 6 mph 89% 53%
17:00   994.0 mb 5 mph 93% 36%
18:00   994.4 mb 6 mph 93% 41%
19:00   995.1 mb 6 mph 94% 38%
20:00   995.8 mb 5 mph 95% 39%
21:00   996.8 mb 6 mph 95% 95%
22:00   998.0 mb 10 mph 93% 87%
23:00   999.2 mb 12 mph 94% 98%
 07:56     16:46 Monday 25.01.2021
00:00   1000.3 mb 12 mph 90% 98%
06:00   1004.5 mb 3 mph 91% 77%
12:00 1.4 mm 1007.0 mb 8 mph 84% 94%
18:00   1010.2 mb 4 mph 97% 98%
 07:55     16:48 Tuesday 26.01.2021
00:00   1013.8 mb 5 mph 97% 56%
06:00   1016.0 mb 4 mph 99% 100%
12:00   1016.7 mb 4 mph 94% 100%
18:00 0.2 mm 1016.5 mb 6 mph 94% 100%
 07:54     16:50 Wednesday 27.01.2021
00:00 1.5 mm 1013.9 mb 11 mph 95% 100%
06:00 3.5 mm 1010.2 mb 9 mph 97% 100%
12:00 1.0 mm 1009.4 mb 9 mph 96% 100%
18:00 0.4 mm 1004.7 mb 6 mph 98% 100%
 07:52     16:52 Thursday 28.01.2021
00:00 1.4 mm 999.3 mb 13 mph 96% 100%
06:00 3.8 mm 995.7 mb 20 mph 87% 99%
12:00 4.5 mm 995.0 mb 25 mph 83% 100%
18:00 0.8 mm 999.3 mb 19 mph 89% 100%
 07:51     16:53 Friday 29.01.2021
00:00 0.6 mm 1002.2 mb 8 mph 92% 100%
06:00 7.8 mm 1000.1 mb 14 mph 91% 100%
12:00 4.2 mm 1000.7 mb 17 mph 91% 100%
18:00 1.9 mm 999.6 mb 19 mph 87% 100%
 07:49     16:55 Saturday 30.01.2021
00:00 0.9 mm 1001.0 mb 15 mph 91% 35%
06:00 0.1 mm 1000.0 mb 15 mph 88% 99%
12:00 0.5 mm 998.1 mb 14 mph 84% 84%
18:00 0.3 mm 991.4 mb 8 mph 96% 100%
 07:48     16:57 Sunday 31.01.2021
00:00 7.2 mm 987.0 mb 15 mph 87% 99%
06:00 1.2 mm 985.5 mb 13 mph 93% 100%
12:00 0.4 mm 987.6 mb 9 mph 90% 80%
18:00 1.0 mm 994.2 mb 16 mph 88% 95%